Satellite-Ground Cal/Val Site Overpasses Predictions

Prediction of Satellite NPP Overpassing Cal/Val Site: Antarctic Dome C

Ground Cal/Val Site Location: Latitude: -75.10, Longitude: 123.35; Satellite-Ground Site NADIR distance within 100 km.

Table of predicted overpasses for the next 14.0 days since TLE Epoch: 7/22/2016
Interval Starting Time Ending Time Minimum Distance Time Minimum Distance (km)
1 07/22/2016 14:36:59 07/22/2016 14:37:13 07/22/2016 14:37:06 86.77
2 07/23/2016 07:38:31 07/23/2016 07:38:59 07/23/2016 07:38:45 36.20
3 07/24/2016 07:19:45 07/24/2016 07:20:04 07/24/2016 07:19:54 73.90
4 07/26/2016 15:01:58 07/26/2016 15:02:22 07/26/2016 15:02:10 57.19
5 07/27/2016 14:43:08 07/27/2016 14:43:33 07/27/2016 14:43:21 51.97
6 07/28/2016 07:44:48 07/28/2016 07:45:09 07/28/2016 07:44:59 71.39
7 07/29/2016 07:25:56 07/29/2016 07:26:23 07/29/2016 07:26:09 36.64
8 07/31/2016 15:08:21 07/31/2016 15:08:29 07/31/2016 15:08:25 94.79
9 08/01/2016 14:49:20 08/01/2016 14:49:49 08/01/2016 14:49:34 16.45
